Stündliche Wetter Jumabozor

Heute, 8 März, Montag

Zeit Temperatur Niederschläge Wind Luftdruck Luftfeuchtigkeit
00:00 +7°C° 0 mm 0 m/S 721 mmHg 73%
01:00 +7°C° 0 mm 0 m/S 721 mmHg 73%
02:00 +7°C° 0 mm 0 m/S 721 mmHg 74%
03:00 +8°C° 0 mm 1 m/S 722 mmHg 73%
04:00 +8°C° 0 mm 1 m/S 722 mmHg 73%
05:00 +8°C° 0 mm 1 m/S 722 mmHg 73%
06:00 +8°C° 0 mm 1 m/S 722 mmHg 72%
07:00 +8°C° 0 mm 1 m/S 723 mmHg 71%
08:00 +8°C° 0 mm 0 m/S 723 mmHg 70%
09:00 +10°C° 0 mm 1 m/S 723 mmHg 66%
10:00 +11°C° 0 mm 1 m/S 724 mmHg 61%
11:00 +13°C° 0 mm 2 m/S 724 mmHg 58%
12:00 +13°C° 0 mm 1 m/S 724 mmHg 55%
13:00 +14°C° 0 mm 1 m/S 724 mmHg 51%
14:00 +15°C° 0 mm 1 m/S 724 mmHg 48%
15:00 +15°C° 0 mm 1 m/S 724 mmHg 48%
16:00 +15°C° 0 mm 1 m/S 724 mmHg 48%
17:00 +15°C° 0 mm 1 m/S 724 mmHg 48%
18:00 +14°C° 0 mm 1 m/S 724 mmHg 51%
19:00 +13°C° 0 mm 1 m/S 724 mmHg 54%
20:00 +12°C° 0 mm 2 m/S 724 mmHg 58%
21:00 +10°C° 0 mm 2 m/S 724 mmHg 57%
22:00 +10°C° 0 mm 2 m/S 724 mmHg 56%
23:00 +10°C° 0 mm 2 m/S 724 mmHg 56%

Morgen, 9 März, Dienstag

Zeit Temperatur Niederschläge Wind Luftdruck Luftfeuchtigkeit
00:00 +9°C° 0 mm 2 m/S 724 mmHg 53%
01:00 +9°C° 0 mm 2 m/S 723 mmHg 50%
02:00 +9°C° 0 mm 2 m/S 723 mmHg 47%
03:00 +8°C° 0 mm 2 m/S 722 mmHg 45%
04:00 +8°C° 0 mm 2 m/S 722 mmHg 43%
05:00 +8°C° 0 mm 2 m/S 722 mmHg 41%
06:00 +8°C° 0 mm 3 m/S 721 mmHg 40%
07:00 +9°C° 0 mm 3 m/S 721 mmHg 39%
08:00 +9°C° 0 mm 3 m/S 721 mmHg 38%
09:00 +12°C° 0 mm 2 m/S 720 mmHg 34%
10:00 +14°C° 0 mm 2 m/S 720 mmHg 31%
11:00 +18°C° 0 mm 1 m/S 720 mmHg 27%
12:00 +18°C° 0 mm 1 m/S 720 mmHg 27%
13:00 +19°C° 0 mm 1 m/S 719 mmHg 26%
14:00 +20°C° 0 mm 1 m/S 719 mmHg 26%
15:00 +19°C° 0 mm 1 m/S 719 mmHg 29%
16:00 +18°C° 0 mm 2 m/S 718 mmHg 32%
17:00 +18°C° 0 mm 2 m/S 718 mmHg 36%
18:00 +17°C° 0 mm 2 m/S 718 mmHg 38%
19:00 +16°C° 0 mm 3 m/S 718 mmHg 39%
20:00 +14°C° 0 mm 3 m/S 717 mmHg 41%
21:00 +14°C° 0 mm 3 m/S 717 mmHg 44%
22:00 +13°C° 0 mm 3 m/S 717 mmHg 46%
23:00 +13°C° 0 mm 3 m/S 717 mmHg 48%

übermorgen, 10 März, Mittwoch

Zeit Temperatur Niederschläge Wind Luftdruck Luftfeuchtigkeit
00:00 +13°C° 0.1 mm 3 m/S 717 mmHg 54%
01:00 +12°C° 0.1 mm 3 m/S 716 mmHg 59%
02:00 +11°C° 0.1 mm 3 m/S 716 mmHg 65%
03:00 +11°C° 0 mm 3 m/S 716 mmHg 62%
04:00 +12°C° 0 mm 4 m/S 716 mmHg 59%
05:00 +12°C° 0 mm 5 m/S 717 mmHg 57%
06:00 +12°C° 0.1 mm 4 m/S 717 mmHg 57%
07:00 +12°C° 0.1 mm 4 m/S 717 mmHg 58%
08:00 +12°C° 0.1 mm 3 m/S 718 mmHg 58%
09:00 +12°C° 0.4 mm 3 m/S 718 mmHg 62%
10:00 +12°C° 0.4 mm 3 m/S 718 mmHg 66%
11:00 +12°C° 0.4 mm 3 m/S 719 mmHg 70%
12:00 +13°C° 0.3 mm 3 m/S 719 mmHg 66%
13:00 +15°C° 0.3 mm 2 m/S 719 mmHg 62%
14:00 +15°C° 0.3 mm 2 m/S 719 mmHg 58%
15:00 +15°C° 0.6 mm 2 m/S 719 mmHg 61%
16:00 +13°C° 0.6 mm 3 m/S 719 mmHg 65%
17:00 +12°C° 0.6 mm 3 m/S 719 mmHg 68%
18:00 +10°C° 0.9 mm 4 m/S 720 mmHg 74%
19:00 +7°C° 0.9 mm 5 m/S 720 mmHg 80%
20:00 +5°C° 0.9 mm 6 m/S 720 mmHg 86%
21:00 +5°C° 3 mm 5 m/S 720 mmHg 88%
22:00 +5°C° 3 mm 3 m/S 720 mmHg 90%
23:00 +5°C° 3 mm 2 m/S 720 mmHg 92%

11 März, Donnerstag

Zeit Temperatur Niederschläge Wind Luftdruck Luftfeuchtigkeit
00:00 +5°C° 0.6 mm 2 m/S 720 mmHg 92%
01:00 +4°C° 0.6 mm 3 m/S 721 mmHg 91%
02:00 +4°C° 0.6 mm 3 m/S 721 mmHg 91%
03:00 +5°C° 0.8 mm 2 m/S 721 mmHg 91%
04:00 +5°C° 0.8 mm 2 m/S 722 mmHg 91%
05:00 +6°C° 0.8 mm 1 m/S 722 mmHg 90%
06:00 +6°C° 0 mm 1 m/S 723 mmHg 90%
07:00 +6°C° 0 mm 1 m/S 723 mmHg 90%
08:00 +6°C° 0 mm 1 m/S 724 mmHg 90%
09:00 +7°C° 0 mm 1 m/S 724 mmHg 81%
10:00 +8°C° 0 mm 1 m/S 724 mmHg 73%
11:00 +8°C° 0 mm 2 m/S 724 mmHg 64%
12:00 +10°C° 0 mm 1 m/S 724 mmHg 55%
13:00 +11°C° 0 mm 1 m/S 724 mmHg 47%
14:00 +12°C° 0 mm 1 m/S 723 mmHg 39%
15:00 +13°C° 0 mm 1 m/S 723 mmHg 37%
16:00 +13°C° 0 mm 1 m/S 723 mmHg 35%
17:00 +13°C° 0 mm 1 m/S 723 mmHg 33%
18:00 +12°C° 0 mm 1 m/S 723 mmHg 37%
19:00 +10°C° 0 mm 2 m/S 723 mmHg 41%
20:00 +8°C° 0 mm 2 m/S 723 mmHg 45%
21:00 +8°C° 0 mm 2 m/S 722 mmHg 45%
22:00 +8°C° 0 mm 2 m/S 722 mmHg 45%
23:00 +7°C° 0 mm 2 m/S 722 mmHg 45%

12 März, Freitag

Zeit Temperatur Niederschläge Wind Luftdruck Luftfeuchtigkeit
00:00 +7°C° 0 mm 2 m/S 721 mmHg 44%
01:00 +7°C° 0 mm 2 m/S 721 mmHg 43%
02:00 +7°C° 0 mm 2 m/S 720 mmHg 42%
03:00 +7°C° 0 mm 2 m/S 720 mmHg 41%
04:00 +6°C° 0 mm 2 m/S 719 mmHg 41%
05:00 +6°C° 0 mm 2 m/S 718 mmHg 40%
06:00 +7°C° 0 mm 2 m/S 718 mmHg 41%
07:00 +7°C° 0 mm 2 m/S 718 mmHg 42%
08:00 +8°C° 0 mm 2 m/S 718 mmHg 42%
09:00 +10°C° 0 mm 1 m/S 718 mmHg 40%
10:00 +12°C° 0 mm 1 m/S 717 mmHg 37%
11:00 +14°C° 0 mm 1 m/S 717 mmHg 34%
12:00 +15°C° 0 mm 1 m/S 716 mmHg 32%
13:00 +16°C° 0 mm 1 m/S 716 mmHg 31%
14:00 +18°C° 0 mm 1 m/S 716 mmHg 30%
15:00 +16°C° 0 mm 1 m/S 715 mmHg 32%
16:00 +16°C° 0 mm 1 m/S 715 mmHg 35%
17:00 +16°C° 0 mm 1 m/S 714 mmHg 38%
18:00 +15°C° 0 mm 1 m/S 715 mmHg 39%
19:00 +14°C° 0 mm 2 m/S 715 mmHg 40%
20:00 +14°C° 0 mm 2 m/S 715 mmHg 41%
21:00 +12°C° 0 mm 3 m/S 715 mmHg 43%
22:00 +12°C° 0 mm 3 m/S 716 mmHg 45%
23:00 +12°C° 0 mm 4 m/S 716 mmHg 47%

13 März, Samstag

Zeit Temperatur Niederschläge Wind Luftdruck Luftfeuchtigkeit
00:00 +12°C° 0 mm 3 m/S 715 mmHg 47%
01:00 +12°C° 0 mm 3 m/S 715 mmHg 47%
02:00 +14°C° 0 mm 2 m/S 715 mmHg 47%
03:00 +13°C° 0.3 mm 2 m/S 715 mmHg 55%
04:00 +12°C° 0.3 mm 3 m/S 714 mmHg 63%
05:00 +11°C° 0.3 mm 4 m/S 714 mmHg 71%
06:00 +11°C° 0.8 mm 4 m/S 714 mmHg 75%
07:00 +11°C° 0.8 mm 4 m/S 714 mmHg 79%
08:00 +10°C° 0.8 mm 4 m/S 715 mmHg 83%
09:00 +11°C° 0.5 mm 4 m/S 714 mmHg 80%
10:00 +11°C° 0.5 mm 4 m/S 714 mmHg 77%
11:00 +12°C° 0.5 mm 4 m/S 714 mmHg 74%
12:00 +12°C° 0.6 mm 4 m/S 714 mmHg 74%
13:00 +12°C° 0.6 mm 4 m/S 714 mmHg 73%
14:00 +13°C° 0.6 mm 4 m/S 714 mmHg 72%
15:00 +12°C° 0.4 mm 4 m/S 714 mmHg 74%
16:00 +12°C° 0.4 mm 3 m/S 714 mmHg 76%
17:00 +12°C° 0.4 mm 3 m/S 714 mmHg 79%
18:00 +12°C° 1 mm 2 m/S 714 mmHg 83%
19:00 +12°C° 1 mm 2 m/S 715 mmHg 86%
20:00 +11°C° 1 mm 1 m/S 715 mmHg 90%
21:00 +11°C° 0.9 mm 1 m/S 715 mmHg 91%
22:00 +11°C° 0.9 mm 1 m/S 716 mmHg 91%
23:00 +11°C° 0.9 mm 1 m/S 716 mmHg 91%
Mehr zeigen

Wir brauchen deine Erlaubnis

Meteoprog und unser Service Anbieter werden persönliche Daten aufbewahren, so wie Cookies, Geräte Bezeichnung oder ähnliche Technologien von deinem Gerät und Prozess, so wie Persönliche Daten Inhalte und Werbungen, genauso wie social Media und den Verkehr zu analysieren.

  • Aufbewahrung und/oder Zugang zu deiner Geräte Informationen.

    Cookies, Geräte Bezeichnung oder andere Informationen, können aufbewahrt oder Zugang zu deinem Gerät erhalten, für den Grund, der oben angegeben wird.

  • Personalisierte Werbung und Inhalte, Messungen, Einblick in das Publikum und Produkt Entwicklung.

    Werbungen und Inhalte können personalisiert werden, basierend auf ein Profil. Mehr Daten können besser personalisierte Werbungen und Inhalte hinzufügen. Werbung und Inhalte können gezeigt und gemessen werden. Einblicke über das Publikum, welche die Werbung gesehen haben und den Inhalt, können abgeleitet werden. So wie Daten können genutzt werden, um es zu verbessern oder die Benutzer Erfahrung zu verbessern das System und die Software.

Wenn du “Ich stimme zu” klickst, erlaubst du uns, die Cookies zu benutzen die Geräte Bezeichnung, den Web oder ähnliche Technologien zu benutzen. Deine Settings, können in deinem Gerät bei deinem Browser geändert werden.

Für den bestimmten Zweck, berechtigten Interessen beruhen darauf, mehr als auf den Inhalt. Du kannst mehr darüber in unseren Privaten und Cookie Politik lesen.